Weather History for Council Bluffs, IA

Change the Weather History Date:

Monday, November 18, 2013

  Actual Average Record
Temperature  
Mean Temperature 42 °F -  
Max Temperature 53 °F 46 °F 73 °F (1999)
Min Temperature 32 °F 29 °F 8 °F (2014)
Degree Days  
Heating Degree Days 22    
Moisture  
Dew Point 31 °F    
Average Humidity 72    
Maximum Humidity 100    
Minimum Humidity 41    
Precipitation  
Precipitation 0.00 in - - ()
Sea Level Pressure  
Sea Level Pressure 30.16 in    
Wind  
Wind Speed 6 mph (SSW)    
Max Wind Speed 9 mph    
Max Gust Speed -    
Visibility 10 miles    
Events      
Averages and records for this station are not official NWS values.
T = Trace of Precipitation, MM = Missing Value Source: NWS Daily Summary

Daily Weather History Graph

Daily Weather History Graph

Search for Another Location

Airport:

Trip Planner

Search our weather history database for the weather conditions in past years. The results will help you decide how hot, cold, wet, or windy it might be!

Date:

Astronomy

Nov. 18, 2013 Rise Set
Actual Time 7:15 AM CST 5:01 PM CST
Civil Twilight 6:45 AM CST 5:31 PM CST
Nautical Twilight 6:11 AM CST 6:04 PM CST
Astronomical Twilight 5:38 AM CST 6:37 PM CST
Moon 6:04 PM CST (11/18) 8:04 AM CST (11/18)
Length of Visible Light 10h 45m
Length of Day
9h 46m
Full, 99% of the Moon is Illuminated
Nov 18
Full
Nov 25
Last Quarter
Dec 2
New
Dec 9
First Quarter
Dec 17
Full

Hourly Weather History & Observations

Time (CST) Temp. Windchill Dew Point Humidity Pressure Visibility Wind Dir Wind Speed Gust Speed Precip Events Conditions
12:15 AM 37.4 °F 31.4 °F 35.6 °F 93% 30.05 in 10.0 mi West 8.1 mph - N/A   Clear
12:35 AM 37.4 °F 31.4 °F 35.6 °F 93% 30.04 in 10.0 mi WNW 8.1 mph - N/A   Clear
12:55 AM 37.4 °F 32.8 °F 33.8 °F 87% 30.05 in 10.0 mi West 5.8 mph - N/A   Clear
1:15 AM 37.4 °F 33.8 °F 33.8 °F 87% 30.06 in 10.0 mi West 4.6 mph - N/A   Clear
1:35 AM 37.4 °F 33.8 °F 33.8 °F 87% 30.05 in 10.0 mi WNW 4.6 mph - N/A   Clear
1:55 AM 35.6 °F 29.2 °F 33.8 °F 93% 30.06 in 10.0 mi WNW 8.1 mph - N/A   Clear
2:15 AM 35.6 °F 29.9 °F 32.0 °F 87% 30.07 in 10.0 mi West 6.9 mph - N/A   Clear
2:35 AM 35.6 °F 29.9 °F 32.0 °F 87% 30.07 in 10.0 mi WNW 6.9 mph - N/A   Clear
2:55 AM 33.8 °F 28.6 °F 32.0 °F 93% 30.07 in 10.0 mi West 5.8 mph - N/A   Clear
3:15 AM 32.0 °F 24.8 °F 30.2 °F 93% 30.08 in 10.0 mi WSW 8.1 mph - N/A   Clear
3:35 AM 32.0 °F 24.8 °F 32.0 °F 100% 30.10 in 10.0 mi WSW 8.1 mph - N/A   Clear
3:55 AM 33.8 °F 27.7 °F 32.0 °F 93% 30.10 in 10.0 mi West 6.9 mph - N/A   Clear
4:15 AM 33.8 °F 27.0 °F 30.2 °F 87% 30.10 in 10.0 mi West 8.1 mph - N/A   Clear
4:35 AM 33.8 °F 27.0 °F 30.2 °F 87% 30.10 in 10.0 mi WNW 8.1 mph - N/A   Clear
4:55 AM 33.8 °F 27.0 °F 30.2 °F 87% 30.11 in 10.0 mi WNW 8.1 mph - N/A   Clear
5:15 AM 32.0 °F 25.6 °F 30.2 °F 93% 30.11 in 10.0 mi WNW 6.9 mph - N/A   Clear
5:35 AM 32.0 °F 26.4 °F 28.4 °F 87% 30.12 in 10.0 mi WNW 5.8 mph - N/A   Clear
5:55 AM 32.0 °F 26.4 °F 28.4 °F 87% 30.12 in 10.0 mi NNW 5.8 mph - N/A   Clear
6:15 AM 32.0 °F 26.4 °F 28.4 °F 87% 30.13 in 10.0 mi NNW 5.8 mph - N/A   Clear
6:35 AM 32.0 °F 25.6 °F 28.4 °F 87% 30.14 in 10.0 mi NNW 6.9 mph - N/A   Clear
6:55 AM 32.0 °F 26.4 °F 28.4 °F 87% 30.15 in 10.0 mi NNW 5.8 mph - N/A   Clear
7:15 AM 32.0 °F 27.5 °F 28.4 °F 87% 30.17 in 10.0 mi NNW 4.6 mph - N/A   Clear
7:35 AM 32.0 °F 26.4 °F 28.4 °F 87% 30.18 in 10.0 mi NNW 5.8 mph - N/A   Clear
7:55 AM 32.0 °F 27.5 °F 28.4 °F 87% 30.18 in 10.0 mi NW 4.6 mph - N/A   Clear
8:15 AM 33.8 °F - 28.4 °F 81% 30.18 in 10.0 mi Calm Calm - N/A   Clear
8:35 AM 35.6 °F - 28.4 °F 75% 30.19 in 10.0 mi Calm Calm - N/A   Clear
8:55 AM 35.6 °F 31.7 °F 30.2 °F 81% 30.20 in 10.0 mi WSW 4.6 mph - N/A   Clear
9:15 AM 35.6 °F 30.7 °F 30.2 °F 81% 30.21 in 10.0 mi SW 5.8 mph - N/A   Clear
9:35 AM 37.4 °F 32.1 °F 30.2 °F 75% 30.22 in 10.0 mi WSW 6.9 mph - N/A   Clear
9:55 AM 39.2 °F 34.2 °F 32.0 °F 75% 30.23 in 10.0 mi SW 6.9 mph - N/A   Clear
10:15 AM 39.2 °F 35.0 °F 30.2 °F 70% 30.24 in 10.0 mi WSW 5.8 mph - N/A   Clear
10:35 AM 41.0 °F 36.4 °F 30.2 °F 65% 30.24 in 10.0 mi West 6.9 mph - N/A   Clear
10:55 AM 41.0 °F 35.8 °F 30.2 °F 65% 30.24 in 10.0 mi SW 8.1 mph - N/A   Clear
11:15 AM 42.8 °F 39.3 °F 32.0 °F 66% 30.24 in 10.0 mi Variable 5.8 mph - N/A   Clear
11:35 AM 42.8 °F 41.1 °F 32.0 °F 66% 30.23 in 10.0 mi Variable 3.5 mph - N/A   Clear
11:55 AM 44.6 °F - 30.2 °F 57% 30.22 in 10.0 mi Calm Calm - N/A   Clear
12:15 PM 46.4 °F - 30.2 °F 53% 30.22 in 10.0 mi Calm Calm - N/A   Clear
12:35 PM 48.2 °F - 30.2 °F 50% 30.22 in 10.0 mi WSW 3.5 mph - N/A   Clear
12:55 PM 48.2 °F - 30.2 °F 50% 30.22 in 10.0 mi Variable 4.6 mph - N/A   Clear
1:15 PM 48.2 °F - 30.2 °F 50% 30.21 in 10.0 mi Calm Calm - N/A   Clear
1:35 PM 50.0 °F - 30.2 °F 47% 30.20 in 10.0 mi Calm Calm - N/A   Clear
1:55 PM 50.0 °F - 30.2 °F 47% 30.19 in 10.0 mi South 4.6 mph - N/A   Clear
2:15 PM 51.8 °F - 30.2 °F 44% 30.18 in 10.0 mi SSW 4.6 mph - N/A   Clear
2:35 PM 53.6 °F - 30.2 °F 41% 30.17 in 10.0 mi South 5.8 mph - N/A   Clear
2:55 PM 53.6 °F - 32.0 °F 44% 30.17 in 10.0 mi East 4.6 mph - N/A   Clear
3:15 PM 53.6 °F - 30.2 °F 41% 30.17 in 10.0 mi ESE 3.5 mph - N/A   Clear
3:35 PM 53.6 °F - 32.0 °F 44% 30.17 in 10.0 mi ESE 4.6 mph - N/A   Clear
3:55 PM 53.6 °F - 32.0 °F 44% 30.17 in 10.0 mi East 4.6 mph - N/A   Clear
4:15 PM 51.8 °F - 32.0 °F 47% 30.17 in 10.0 mi Calm Calm - N/A   Clear
4:35 PM 50.0 °F - 32.0 °F 50% 30.17 in 10.0 mi East 4.6 mph - N/A   Clear
4:55 PM 48.2 °F - 32.0 °F 54% 30.17 in 10.0 mi East 4.6 mph - N/A   Clear
5:15 PM 46.4 °F 43.5 °F 32.0 °F 57% 30.17 in 10.0 mi ESE 5.8 mph - N/A   Clear
5:35 PM 46.4 °F 44.3 °F 32.0 °F 57% 30.17 in 10.0 mi East 4.6 mph - N/A   Clear
5:55 PM 44.6 °F 41.4 °F 32.0 °F 61% 30.18 in 10.0 mi ESE 5.8 mph - N/A   Clear
6:15 PM 44.6 °F 41.4 °F 32.0 °F 61% 30.18 in 10.0 mi ESE 5.8 mph - N/A   Clear
6:35 PM 42.8 °F 38.6 °F 32.0 °F 66% 30.18 in 10.0 mi ESE 6.9 mph - N/A   Clear
6:55 PM 42.8 °F 38.0 °F 32.0 °F 66% 30.17 in 10.0 mi ESE 8.1 mph - N/A   Clear
7:15 PM 41.0 °F 35.8 °F 32.0 °F 70% 30.17 in 10.0 mi ESE 8.1 mph - N/A   Clear
7:35 PM 41.0 °F 35.8 °F 32.0 °F 70% 30.17 in 10.0 mi ESE 8.1 mph - N/A   Clear
7:55 PM 37.4 °F 32.1 °F 30.2 °F 75% 30.17 in 10.0 mi ESE 6.9 mph - N/A   Clear
8:15 PM 39.2 °F 34.2 °F 30.2 °F 70% 30.18 in 10.0 mi ESE 6.9 mph - N/A   Clear
8:35 PM 39.2 °F 34.2 °F 30.2 °F 70% 30.18 in 10.0 mi SE 6.9 mph - N/A   Clear
8:55 PM 37.4 °F 31.4 °F 30.2 °F 75% 30.19 in 10.0 mi ESE 8.1 mph - N/A   Clear
9:15 PM 37.4 °F 32.1 °F 30.2 °F 75% 30.19 in 10.0 mi SE 6.9 mph - N/A   Clear
9:35 PM 37.4 °F 30.8 °F 30.2 °F 75% 30.19 in 10.0 mi ESE 9.2 mph - N/A   Clear
9:55 PM 35.6 °F 28.6 °F 30.2 °F 81% 30.19 in 10.0 mi SE 9.2 mph - N/A   Clear
10:15 PM 35.6 °F 29.2 °F 30.2 °F 81% 30.19 in 10.0 mi SE 8.1 mph - N/A   Clear
10:35 PM 35.6 °F 29.2 °F 28.4 °F 75% 30.19 in 10.0 mi SE 8.1 mph - N/A   Clear
10:55 PM 35.6 °F 29.2 °F 28.4 °F 75% 30.19 in 10.0 mi SE 8.1 mph - N/A   Clear
11:15 PM 35.6 °F 29.2 °F 28.4 °F 75% 30.19 in 10.0 mi SE 8.1 mph - N/A   Clear
11:35 PM 35.6 °F 28.6 °F 28.4 °F 75% 30.19 in 10.0 mi SE 9.2 mph - N/A   Clear
11:55 PM 33.8 °F 27.0 °F 28.4 °F 81% 30.18 in 10.0 mi SE 8.1 mph - N/A   Clear